DateTimeUTC,F1_A11,F1_S11,BsB_S11,BsG_S11,BsR_S11,BbsB_S11,BbsG_S11,BbsR_S11,BaB_A11,BaG_A11,BaR_A11,Tu_S11,T_S11,Uu_S11,U_S11,P_S11,T1_A11
2021-10-13T04:00:00Z,00000200,21000000,,,,,,,-000.12,-000.05,-000.11,16.6,24.2,,00.0,0670.0,30.9
2021-10-13T04:01:00Z,00000200,21000000,,,,,,,0000.36,0000.15,-000.19,16.7,24.2,,00.0,0670.0,30.9
2021-10-13T04:02:00Z,00000200,21000000,,,,,,,0000.15,-000.17,0000.40,16.7,24.2,,00.0,0670.0,30.9
2021-10-13T04:03:00Z,00000200,61000000,,,,,,,0000.33,0000.64,0000.41,16.7,24.2,,00.0,0670.0,31.0
2021-10-13T04:04:00Z,00000200,41000000,0002.72,0001.83,0000.63,-000.11,0000.29,0000.04,0000.48,0000.46,-000.03,17.2,24.1,,00.0,0671.0,31.0
2021-10-13T04:05:00Z,00000200,01000000,0002.11,0001.65,0000.75,0000.38,0000.22,0000.29,0000.18,0000.15,0000.29,17.3,24.1,,00.0,0671.1,31.0
2021-10-13T04:06:00Z,00000200,01000000,0002.89,0001.33,0000.56,0000.26,0000.18,0000.18,0000.28,0000.11,-000.14,17.3,24.1,,00.0,0671.0,31.0
2021-10-13T04:07:00Z,00000200,01000000,0002.01,0001.66,0000.64,0000.58,0000.44,0000.00,0000.44,0000.31,0000.39,17.3,24.1,,00.0,0671.0,31.0
2021-10-13T04:08:00Z,00000200,01000000,0001.95,0001.55,0000.77,0000.40,0000.13,0000.64,0000.43,-000.01,-000.00,17.3,24.1,,00.0,0671.0,31.0
2021-10-13T04:09:00Z,00000200,01000000,0002.01,0001.17,0000.43,-000.06,-000.03,-000.02,-000.22,0000.47,-000.08,17.2,24.0,,00.0,0670.9,31.0
2021-10-13T04:10:00Z,00000200,01000000,0001.25,0000.64,0000.46,0000.36,0000.45,-000.08,0000.04,-000.29,-000.20,17.1,24.0,,00.0,0670.9,31.0
2021-10-13T04:11:00Z,00000200,01000000,0001.09,0000.73,0000.31,0000.01,0000.10,0000.20,0000.28,0000.08,0000.17,17.0,24.0,,00.0,0670.9,30.9
2021-10-13T04:12:00Z,00000200,01000000,0001.01,0000.83,0000.42,0000.34,0000.23,0000.29,0000.78,0000.89,0000.65,17.0,23.9,,00.0,0670.9,30.9
2021-10-13T04:13:00Z,00000200,01000000,0001.72,0000.79,0000.35,0001.19,0000.11,0000.18,0000.38,0000.21,0000.27,17.0,23.9,,00.0,0670.9,30.9
2021-10-13T04:14:00Z,00000200,01000000,0000.40,0000.53,0000.23,-000.39,0000.11,0000.07,0000.35,0000.63,0000.39,17.1,23.9,,00.0,0670.9,30.9
2021-10-13T04:15:00Z,00000200,01000000,0000.07,0000.37,0000.16,0000.68,-000.14,-000.45,0000.03,0000.45,0000.25,17.1,23.9,,00.0,0670.9,30.9
2021-10-13T04:16:00Z,00000200,01000000,0000.35,0000.65,0000.29,0000.41,0000.01,-000.09,0000.67,0000.08,-000.06,17.2,24.0,,00.0,0670.9,31.0
2021-10-13T04:17:00Z,00000200,01000000,0001.33,0000.53,-000.05,0000.50,0000.22,-000.20,0000.31,0000.07,0000.31,17.3,24.0,,00.0,0670.9,31.0
2021-10-13T04:18:00Z,00000200,01000000,0000.95,0001.08,0000.40,0000.39,0000.02,0000.08,0000.18,0000.08,0000.05,17.3,24.0,,00.0,0670.9,31.0
2021-10-13T04:19:00Z,00000200,01000000,0000.64,0000.73,0000.19,0000.21,0000.02,0000.24,0000.02,0000.55,0000.37,17.4,24.0,,00.0,0670.9,31.0
2021-10-13T04:20:00Z,00000200,01000000,0001.04,0000.62,0000.35,0000.23,0000.12,-000.06,0000.16,-000.30,-000.31,17.5,24.1,,00.0,0670.9,31.0
2021-10-13T04:21:00Z,00000200,01000000,0000.89,0000.59,0000.38,0000.28,-000.13,0000.30,0000.28,-000.16,-000.06,17.5,24.1,,00.0,0670.8,31.0
2021-10-13T04:22:00Z,00000200,01000000,0001.19,0000.76,-000.01,0000.32,0000.23,0000.07,-000.30,0000.25,0000.39,17.5,24.1,,00.0,0670.8,31.0
2021-10-13T04:23:00Z,00000200,01000000,0001.06,0000.73,0000.11,0000.67,0000.02,-000.11,0000.30,0000.27,-000.07,17.4,24.1,,00.0,0670.8,31.0
2021-10-13T04:24:00Z,00000200,01000000,0000.95,0000.58,0000.33,0000.53,0000.19,0000.17,-000.18,-000.19,-000.49,17.4,24.1,,00.0,0670.8,31.0
2021-10-13T04:25:00Z,00000200,01000000,0001.89,0001.08,0000.54,0000.31,0000.19,-000.10,0000.50,0000.15,0000.63,17.3,24.0,,00.0,0670.7,30.9
2021-10-13T04:26:00Z,00000200,01000000,0001.94,0001.18,0000.43,0000.37,0000.28,-000.07,0000.14,0000.38,-000.01,17.2,24.0,,00.0,0670.7,30.9
2021-10-13T04:27:00Z,00000200,01000000,0000.94,0000.81,0000.15,0000.65,0000.07,-000.30,0000.40,0000.28,0000.28,17.2,24.0,,00.0,0670.7,30.9
2021-10-13T04:28:00Z,00000200,01000000,0001.37,0001.05,0000.44,0000.09,0000.25,0000.02,0000.08,0000.40,0000.12,17.2,23.9,,00.0,0670.7,30.9
2021-10-13T04:29:00Z,00000200,01000000,0002.14,0001.51,0000.87,0000.22,0000.16,0000.01,0000.62,0000.51,0000.50,17.2,23.9,,00.0,0670.7,30.9
2021-10-13T04:30:00Z,00000200,01000000,0001.76,0001.28,0000.55,0000.18,0000.28,-000.10,0000.24,0000.10,0000.62,17.3,24.0,,00.0,0670.7,30.9
2021-10-13T04:31:00Z,00000200,01000000,0001.24,0000.70,0000.32,0000.24,0000.19,0000.06,0000.57,0000.50,-000.33,17.3,24.0,,00.0,0670.7,30.9
2021-10-13T04:32:00Z,00000200,01000000,0001.10,0000.99,0000.41,0000.67,0000.33,0000.22,0000.14,0000.01,0000.25,17.4,24.0,,00.0,0670.7,31.0
2021-10-13T04:33:00Z,00000200,01000000,0001.55,0000.92,0000.19,-000.18,0000.30,0000.44,-000.19,-000.23,-000.16,17.4,24.0,,00.0,0670.7,31.0
2021-10-13T04:34:00Z,00000200,01000000,0001.38,0001.04,0000.56,0000.20,0000.10,0000.32,-000.10,-000.11,-000.14,17.4,24.1,,00.0,0670.7,31.0
2021-10-13T04:35:00Z,00000200,01000000,0001.51,0000.97,0000.09,0000.69,0000.09,0000.20,0000.06,0000.30,0000.23,17.4,24.1,,00.0,0670.7,31.0
2021-10-13T04:36:00Z,00000200,01000000,0000.70,0000.85,0000.29,0000.46,0000.20,0000.23,0000.18,-000.38,-000.41,17.3,24.0,,00.0,0670.6,30.9
2021-10-13T04:37:00Z,00000200,01000000,0000.79,0000.98,0000.20,0000.16,0000.15,0000.02,0000.04,0000.02,0000.37,17.3,24.0,,00.0,0670.6,30.9
2021-10-13T04:38:00Z,00000200,01000000,0001.30,0000.68,0000.03,0000.36,0000.56,-000.15,0000.14,0000.44,-000.22,17.2,24.0,,00.0,0670.6,30.9
2021-10-13T04:39:00Z,00000200,01000000,0001.42,0001.09,0000.29,0000.51,-000.07,-000.00,0000.00,0000.14,0000.22,17.1,23.9,,00.0,0670.5,30.9
2021-10-13T04:40:00Z,00000200,01000000,0001.03,0000.74,0000.58,0000.18,0000.04,-000.02,0000.32,0000.08,0000.08,17.0,23.9,,00.0,0670.5,30.9
2021-10-13T04:41:00Z,00000200,01000000,0000.26,0000.67,0000.16,0000.17,0000.00,-000.15,0000.35,-000.04,0000.22,17.0,23.8,,00.0,0670.5,30.9
2021-10-13T04:42:00Z,00000200,01000000,0000.79,0000.93,0000.53,0000.23,0000.36,-000.02,0000.32,0000.37,-000.03,16.9,23.8,,00.0,0670.5,30.9
2021-10-13T04:43:00Z,00000200,01000000,0000.97,0000.38,0000.16,0000.04,-000.16,0000.04,0000.27,0000.50,0000.47,16.9,23.8,,00.0,0670.5,30.9
2021-10-13T04:44:00Z,00000200,01000000,0000.70,0000.64,0000.27,-000.12,0000.03,-000.25,0000.38,0000.47,0000.42,17.0,23.8,,00.0,0670.5,30.9
2021-10-13T04:45:00Z,00000200,01000000,0000.77,0000.59,0000.35,0000.70,0000.07,0000.17,0000.01,-000.13,0000.03,17.0,23.8,,00.0,0670.5,30.9
2021-10-13T04:46:00Z,00000200,01000000,0000.51,0000.66,-000.11,0000.58,0000.27,0000.03,0000.57,0000.51,0000.14,17.1,23.8,,00.0,0670.5,30.9
2021-10-13T04:47:00Z,00000200,01000000,0000.70,0000.80,-000.12,0000.25,-000.01,-000.11,0000.26,0000.09,-000.10,17.2,23.8,,00.0,0670.5,31.0
2021-10-13T04:48:00Z,00000200,01000000,0001.11,0000.54,0000.13,0000.06,-000.16,-000.13,0000.11,0000.41,0000.63,17.2,23.9,,00.0,0670.5,31.0
2021-10-13T04:49:00Z,00000200,01000000,0000.55,0000.43,0000.32,0000.34,0000.46,0000.23,0000.44,0000.29,-000.03,17.3,23.9,,00.0,0670.5,31.0
2021-10-13T04:50:00Z,00000200,01000000,0000.50,0000.76,0000.14,0000.29,0000.05,-000.29,0000.03,0000.14,0000.08,17.3,23.9,,00.0,0670.5,31.0
2021-10-13T04:51:00Z,00000200,01000000,0000.89,0000.25,0000.20,0000.30,-000.21,0000.15,0000.28,0000.41,0000.15,17.4,24.0,,00.0,0670.5,31.0
2021-10-13T04:52:00Z,00000200,01000000,0000.53,0000.56,0000.04,0000.31,0000.48,0000.02,0000.16,-000.19,0000.02,17.5,24.0,,00.0,0670.5,31.0
2021-10-13T04:53:00Z,00000200,01000000,0000.88,0000.63,0000.17,0000.43,0000.36,-000.14,-000.06,0000.04,-000.18,17.5,24.0,,00.0,0670.5,31.0
2021-10-13T04:54:00Z,00000200,01000000,0002.10,0001.64,0000.76,0000.95,0000.47,-000.01,0017.93,0016.34,0012.55,17.4,24.0,,00.0,0670.4,31.0
2021-10-13T04:55:00Z,00000200,01000000,0008.35,0005.58,0003.23,0001.94,0001.42,0000.80,0098.29,0090.14,0071.26,17.4,24.0,,00.0,0670.4,31.0
2021-10-13T04:56:00Z,00000200,01000000,0005.19,0003.99,0002.32,0001.14,0000.75,0000.64,0058.81,0054.37,0043.07,17.3,24.0,,00.0,0670.4,30.9
2021-10-13T04:57:00Z,00000200,41000000,,,,,,,0017.73,0016.46,0013.30,17.3,24.0,,00.0,0670.5,30.9
2021-10-13T04:58:00Z,00000200,61000000,,,,,,,0000.82,0000.81,0000.38,16.9,24.1,,00.0,0669.4,30.9
2021-10-13T04:59:00Z,00000200,21000000,,,,,,,0000.52,0000.42,0000.86,16.9,24.2,,00.0,0669.4,30.9
